Regional Weather Roundup
Issued by NWS

Home | Current Version | Previous Version | Text Only | Print | Product List | Glossary On
Versions: 1 2 3 4 5 6 7 8 9 10 11 12 13 14 15 16 17 18 19 20 21 22 23 24 25 26 27 28 29 30 31 32 33 34 35 36 37 38 39 40 41 42 43 44 45 46 47 48 49 50
000
ASUS44 KBMX 280610
RWRAL

ALABAMA REGIONAL WEATHER ROUNDUP
NATIONAL WEATHER SERVICE BIRMINGHAM AL
100 AM CDT TUE JUL 28 2015

NOTE: "FAIR" INDICATES FEW OR NO CLOUDS BELOW 12,000 FEET
WITH NO SIGNIFICANT WEATHER AND/OR OBSTRUCTIONS TO VISIBILITY.

THE REMARK "TC" DENOTES TEMPERATURE IN DEGREES CELSIUS.

ALZ001>011-014-016>018-020-280700-
NORTH ALABAMA

CITY           SKY/WX    TMP DP  RH WIND       PRES   REMARKS
MUSCLE SHOALS  CLEAR     79  74  84 CALM      29.99F
6HR MIN TEMP:  78; 6HR MAX TEMP:  92;

HUNTSVILLE     CLEAR     79  73  82 CALM      29.98F
6HR MIN TEMP:  79; 6HR MAX TEMP:  94;

DECATUR        CLEAR     76  74  93 CALM      29.98F
6HR MIN TEMP:  74; 6HR MAX TEMP:  91;

HALEYVILLE     FAIR      75  75 100 CALM      30.03F FOG
6HR MIN TEMP:  75; 6HR MAX TEMP:  90;

GADSDEN        CLEAR     75  70  83 CALM      29.98F
6HR MIN TEMP:  75; 6HR MAX TEMP:  86;

$$

ALZ012-013-022-023-030>036-040>044-280700-
WEST CENTRAL ALABAMA

CITY           SKY/WX    TMP DP  RH WIND       PRES   REMARKS
TUSCALOOSA     CLEAR     78  76  93 CALM      29.97F
6HR MIN TEMP:  78; 6HR MAX TEMP:  88;

$$

ALZ015-024>027-033>036-040>044-280700-
CENTRAL ALABAMA

CITY           SKY/WX    TMP DP  RH WIND       PRES   REMARKS
BIRMINGHAM     CLEAR     75  74  96 E3        30.01F
6HR MIN TEMP:  75; 6HR MAX TEMP:  79;

MONTGOMERY     CLEAR     80  75  84 CALM      29.97S
6HR MIN TEMP:  80; 6HR MAX TEMP:  91;

SHELBY CO ARPT CLEAR     75  74  96 CALM      29.99F
6HR MIN TEMP:  75; 6HR MAX TEMP:  80;

MAXWELL AFB    CLEAR     79  76  91 CALM      29.95F
6HR MIN TEMP:  78; 6HR MAX TEMP:  92;

GREENVILLE     FAIR      78  73  84 CALM      29.97F
6HR MIN TEMP:  77; 6HR MAX TEMP:  89;

$$

ALZ019-021-028-029-037-038-045>048-280700-
EAST CENTRAL ALABAMA

CITY           SKY/WX    TMP DP  RH WIND       PRES   REMARKS
ANNISTON       CLEAR     76  73  91 CALM      30.00S
6HR MIN TEMP:  76; 6HR MAX TEMP:  83;

ALEXANDER CITY PTCLDY    77  70  78 N3        29.99F
6HR MIN TEMP:  74; 6HR MAX TEMP:  84;

AUBURN         PTCLDY    79  72  78 NE6       30.01S
6HR MIN TEMP:  79; 6HR MAX TEMP:  90;

$$

ALZ051>064-280700-
SOUTHWEST ALABAMA

CITY           SKY/WX    TMP DP  RH WIND       PRES   REMARKS
MOBILE         PTCLDY    77  74  90 W3        29.98S
6HR MIN TEMP:  76; 6HR MAX TEMP:  89;

BROOKLEY FIELD PTCLDY    81  73  76 W5        29.97F
6HR MIN TEMP:  80; 6HR MAX TEMP:  89;

EVERGREEN      CLEAR     76  74  93 CALM      29.97F
6HR MIN TEMP:  76; 6HR MAX TEMP:  89;

$$

ALZ049-050-065>069-280700-
SOUTHEAST ALABAMA

CITY           SKY/WX    TMP DP  RH WIND       PRES   REMARKS
DOTHAN         PTCLDY    81  74  79 CALM      30.00S
6HR MIN TEMP:  81; 6HR MAX TEMP:  92;

OZARK          PTCLDY    79  74  87 NW6       29.96S
6HR MIN TEMP:  78; 6HR MAX TEMP:  91;

TROY           CLEAR     75  73  93 CALM      29.98S FOG
6HR MIN TEMP:  75; 6HR MAX TEMP:  89;

EUFAULA        FAIR      77  74  90 CALM      29.96S
6HR MIN TEMP:  76; 6HR MAX TEMP:  90;

$$


USA.gov is the U.S. government's official web portal to all federal, state and local government web resources and services.